Location: Normandy Village
(37.8755°N, 122.2655°W)
Time: 11:20:41
(UTC+00:00)

ATLAS 3B R/B - Pass Details

Date: 12 December 2019
Orbit: 1027 x 1168 km, 63.8° (Epoch: 16 January)

Event Time Altitude Azimuth Distance (km) Brightness Sun altitude
Rises 14:02:12 0° 178° (S) 3,836 5.9 -14.0°
Reaches altitude 10° 14:05:13 10° 167° (SSE) 2,865 5.4 -13.5°
Maximum altitude 14:10:49 29° 111° (ESE) 1,813 4.8 -12.4°
Drops below altitude 10° 14:16:21 10° 54° (NE) 2,830 5.4 -11.4°
Sets 14:19:18 0° 44° (NE) 3,781 5.9 -10.8°
